EW3016 Weather Reports


Display with metric or nautical units.
time (UTC)temp
F
wind
direction
speed
MPH
gust
MPH
rain 1hr
in
rain 24hr
in
rain mn
in
humidity
%
barometer
mb
20260506093017 52 0.0 0.0 0.00 0.20 0.00 93 1006.4
20260506090018 53 0.0 0.0 0.00 0.20 0.00 93 1007.0
20260506083018 53 0.0 0.0 0.00 0.20 0.00 93 1007.2
20260506073017 53 0.0 0.0 0.00 0.23 0.00 93 1007.7
20260506043017 53 0.0 0.0 0.00 0.23 0.00 86 1009.8
20260506040042 54 0.0 0.0 0.00 0.23 0.23 86 1009.8
20260506033042 55 0.0 6.0 0.00 0.23 0.23 89 1009.8
20260506030018 56 338 2.0 12.0 0.00 0.23 0.23 90 1009.5
20260506023037 58 0.0 0.0 0.00 0.23 0.23 89 1009.2
20260506020017 60 0.0 0.0 0.00 0.23 0.23 88 1008.8
20260506013017 61 0.0 0.0 0.00 0.23 0.23 85 1008.5
20260506010017 61 0.0 0.0 0.00 0.23 0.23 84 1008.1
20260506003016 61 0.0 0.0 0.00 0.23 0.23 85 1007.9
20260506000016 60 0.0 0.0 0.00 0.23 0.23 86 1007.5
20260505233017 60 0.0 0.0 0.00 0.23 0.23 87 1007.0
20260505230016 60 0.0 2.0 0.00 0.23 0.23 87 1007.0
20260505223017 60 0.0 4.0 0.00 0.23 0.23 87 1006.6
20260505220016 60 0.0 0.0 0.01 0.23 0.23 90 1006.6
20260505213016 59 0.0 0.0 0.16 0.23 0.23 90 1006.8
20260505210017 60 248 5.0 31.0 0.15 0.22 0.22 86 1007.2
20260505203016 70 158 6.0 24.0 0.00 0.07 0.07 55 1007.4
20260505200016 74 180 7.0 25.0 0.00 0.07 0.07 39 1005.2
20260505193016 75 225 5.0 25.0 0.00 0.07 0.07 40 1005.6
20260505190016 74 225 4.0 18.0 0.00 0.07 0.07 45 1005.8
20260505183016 74 203 7.0 24.0 0.00 0.07 0.07 41 1006.4
20260505180036 75 225 6.0 24.0 0.00 0.07 0.07 41 1006.5
20260505173016 76 225 8.0 27.0 0.00 0.07 0.07 40 1006.9
20260505170017 75 203 7.0 31.0 0.00 0.07 0.07 42 1006.7
20260505163016 75 203 8.0 26.0 0.00 0.07 0.07 41 1007.2
20260505153036 74 180 6.0 22.0 0.00 0.07 0.07 47 1007.8
20260505123016 63 203 4.0 17.0 0.00 0.03 0.03 61 1008.8
20260505120016 62 158 5.0 15.0 0.00 0.03 0.03 61 1008.5
20260505113016 62 158 4.0 19.0 0.00 0.03 0.03 62 1008.7
20260505100016 58 158 5.0 19.0 0.00 0.03 0.03 64 1007.6
20260505093036 58 158 3.0 17.0 0.00 0.03 0.03 66 1007.5